| time (UTC) | temp C | wind direction | speed KPH | gust KPH | rain 1hr cm | rain 24hr cm | rain mn cm | humidity % | barometer mb |
| 20260508133134 | 14 | 121 | 9.7 | 19.3 | 0.00 | 0.00 | 0.00 | 42 | 1023.0 |
| 20260508131531 | 14 | 129 | 9.7 | 17.7 | 0.00 | 0.00 | 0.00 | 40 | 1023.0 |
| 20260508130031 | 14 | 97 | 8.0 | 16.1 | 0.00 | 0.00 | 0.00 | 41 | 1023.2 |
| 20260508124533 | 14 | 118 | 8.0 | 25.7 | 0.00 | 0.00 | 0.00 | 43 | 1023.1 |
| 20260508123030 | 14 | 76 | 9.7 | 19.3 | 0.00 | 0.00 | 0.00 | 39 | 1023.2 |
| 20260508121529 | 14 | 138 | 9.7 | 25.7 | 0.00 | 0.00 | 0.00 | 40 | 1023.2 |
| 20260508120029 | 14 | 109 | 11.3 | 20.9 | 0.00 | 0.00 | 0.00 | 37 | 1023.1 |
| 20260508114528 | 13 | 193 | 14.5 | 25.7 | 0.00 | 0.00 | 0.00 | 39 | 1023.1 |
| 20260508113126 | 14 | 94 | 6.4 | 24.1 | 0.00 | 0.00 | 0.00 | 43 | 1023.1 |
| 20260508111525 | 13 | 114 | 12.9 | 20.9 | 0.00 | 0.00 | 0.00 | 42 | 1023.2 |
| 20260508110031 | 13 | 111 | 11.3 | 20.9 | 0.00 | 0.00 | 0.00 | 41 | 1023.2 |
| 20260508104523 | 13 | 70 | 11.3 | 20.9 | 0.00 | 0.00 | 0.00 | 42 | 1023.3 |
| 20260508103036 | 13 | 115 | 8.0 | 17.7 | 0.00 | 0.00 | 0.00 | 42 | 1023.2 |
| 20260508101518 | 13 | 148 | 8.0 | 30.6 | 0.00 | 0.00 | 0.00 | 42 | 1023.1 |
| 20260508100017 | 13 | 98 | 11.3 | 19.3 | 0.00 | 0.00 | 0.00 | 37 | 1023.1 |
| 20260508094617 | 13 | 101 | 8.0 | 19.3 | 0.00 | 0.00 | 0.00 | 36 | 1023.0 |
| 20260508093011 | 13 | 145 | 8.0 | 19.3 | 0.00 | 0.00 | 0.00 | 44 | 1023.0 |
| 20260508091510 | 13 | 108 | 8.0 | 17.7 | 0.00 | 0.00 | 0.00 | 45 | 1023.0 |
| 20260508090003 | 13 | 84 | 8.0 | 17.7 | 0.00 | 0.00 | 0.00 | 52 | 1022.9 |
| 20260508084559 | 13 | 61 | 9.7 | 17.7 | 0.00 | 0.00 | 0.00 | 49 | 1022.8 |
| 20260508083056 | 13 | 90 | 9.7 | 17.7 | 0.00 | 0.00 | 0.00 | 59 | 1022.7 |
| 20260508081610 | 12 | 72 | 8.0 | 12.9 | 0.00 | 0.00 | 0.00 | 63 | 1022.8 |
| 20260508080049 | 12 | 84 | 4.8 | 14.5 | 0.00 | 0.00 | 0.00 | 58 | 1022.7 |
| 20260508074544 | 11 | 70 | 9.7 | 19.3 | 0.00 | 0.00 | 0.00 | 56 | 1022.6 |
| 20260508073045 | 11 | 82 | 9.7 | 16.1 | 0.00 | 0.00 | 0.00 | 63 | 1022.6 |
| 20260508071538 | 11 | 76 | 9.7 | 19.3 | 0.00 | 0.00 | 0.00 | 70 | 1022.4 |
| 20260508070031 | 11 | 117 | 6.4 | 16.1 | 0.00 | 0.00 | 0.00 | 69 | 1022.2 |
| 20260508064531 | 11 | 134 | 6.4 | 14.5 | 0.00 | 0.00 | 0.00 | 70 | 1022.0 |
| 20260508063023 | 11 | 105 | 4.8 | 12.9 | 0.00 | 0.00 | 0.00 | 71 | 1021.9 |
| 20260508061518 | 10 | 78 | 6.4 | 11.3 | 0.00 | 0.00 | 0.00 | 69 | 1021.8 |
| 20260508060021 | 10 | 82 | 3.2 | 9.7 | 0.00 | 0.00 | 0.00 | 74 | 1021.7 |
| 20260508054518 | 9 | 71 | 4.8 | 8.0 | 0.00 | 0.00 | 0.00 | 77 | 1021.5 |
| 20260508053004 | 8 | 92 | 1.6 | 4.8 | 0.00 | 0.00 | 0.00 | 83 | 1021.5 |
| 20260508051600 | 8 | 93 | 1.6 | 4.8 | 0.00 | 0.00 | 0.00 | 84 | 1021.4 |
| 20260508050055 | 6 | 109 | 0.0 | 1.6 | 0.00 | 0.00 | 0.00 | 86 | 1021.4 |
| 20260508044551 | 5 | 109 | 0.0 | 1.6 | 0.00 | 0.00 | 0.00 | 87 | 1021.2 |
| 20260508043055 | 3 | 109 | 0.0 | 0.0 | 0.00 | 0.00 | 0.00 | 89 | 1021.2 |
| 20260508041544 | 2 | 109 | 0.0 | 1.6 | 0.00 | 0.00 | 0.00 | 90 | 1021.1 |
| 20260508040040 | 1 | 17 | 0.0 | 0.0 | 0.00 | 0.00 | 0.00 | 90 | 1021.0 |
| 20260508034547 | 1 | 17 | 0.0 | 0.0 | 0.00 | 0.00 | 0.00 | 91 | 1021.0 |
| 20260508033036 | 0 | 17 | 0.0 | 0.0 | 0.00 | 0.00 | 0.00 | 90 | 1021.0 |
| 20260508031535 | 0 | 17 | 0.0 | 0.0 | 0.00 | 0.00 | 0.00 | 89 | 1020.9 |
| 20260508030034 | 0 | 17 | 0.0 | 0.0 | 0.00 | 0.00 | 0.00 | 89 | 1020.8 |
| 20260508024533 | 0 | 17 | 0.0 | 0.0 | 0.00 | 0.00 | 0.00 | 89 | 1020.7 |
| 20260508023031 | 0 | 17 | 0.0 | 0.0 | 0.00 | 0.00 | 0.00 | 88 | 1020.7 |
| 20260508021528 | 0 | 17 | 0.0 | 0.0 | 0.00 | 0.00 | 0.00 | 89 | 1020.6 |
| 20260508020027 | 1 | 17 | 0.0 | 0.0 | 0.00 | 0.00 | 0.00 | 89 | 1020.7 |
| 20260508014535 | 1 | 17 | 0.0 | 0.0 | 0.00 | 0.00 | 0.00 | 89 | 1020.6 |
| 20260508013025 | 1 | 17 | 0.0 | 0.0 | 0.00 | 0.00 | 0.00 | 88 | 1020.5 |
| 20260508011523 | 1 | 17 | 0.0 | 0.0 | 0.00 | 0.00 | 0.00 | 88 | 1020.5 |
| 20260508010037 | 1 | 17 | 0.0 | 0.0 | 0.00 | 0.00 | 0.00 | 88 | 1020.4 |
| 20260508004525 | 1 | 17 | 0.0 | 0.0 | 0.00 | 0.00 | 0.00 | 87 | 1020.4 |
| 20260508003018 | 1 | 17 | 0.0 | 0.0 | 0.00 | 0.00 | 0.00 | 87 | 1020.3 |
| 20260508001516 | 1 | 17 | 0.0 | 0.0 | 0.00 | 0.00 | 0.00 | 87 | 1020.4 |
| 20260508000015 | 2 | 17 | 0.0 | 0.0 | 0.00 | 0.00 | 0.00 | 87 | 1020.3 |
| 20260507234514 | 2 | 17 | 0.0 | 0.0 | 0.00 | 0.00 | 0.00 | 87 | 1020.3 |
| 20260507233011 | 2 | 17 | 0.0 | 0.0 | 0.00 | 0.00 | 0.00 | 86 | 1020.2 |
| 20260507231508 | 2 | 17 | 0.0 | 0.0 | 0.00 | 0.00 | 0.00 | 85 | 1020.1 |
| 20260507230006 | 3 | 17 | 0.0 | 0.0 | 0.00 | 0.00 | 0.00 | 86 | 1020.2 |
| 20260507224511 | 3 | 17 | 0.0 | 3.2 | 0.00 | 0.00 | 0.00 | 87 | 1020.1 |
| 20260507223004 | 3 | 339 | 0.0 | 0.0 | 0.00 | 0.00 | 0.00 | 87 | 1019.9 |
| 20260507221501 | 3 | 339 | 0.0 | 0.0 | 0.00 | 0.00 | 0.00 | 85 | 1019.8 |
| 20260507220059 | 3 | 339 | 0.0 | 0.0 | 0.00 | 0.00 | 0.00 | 84 | 1019.6 |
| 20260507214557 | 3 | 339 | 0.0 | 0.0 | 0.00 | 0.00 | 0.00 | 85 | 1019.5 |
| 20260507213057 | 3 | 339 | 0.0 | 0.0 | 0.00 | 0.00 | 0.00 | 83 | 1019.5 |
| 20260507211556 | 4 | 339 | 0.0 | 0.0 | 0.00 | 0.00 | 0.00 | 81 | 1019.4 |
| 20260507204553 | 5 | 339 | 0.0 | 0.0 | 0.00 | 0.00 | 0.00 | 79 | 1019.3 |
| 20260507203057 | 5 | 339 | 0.0 | 0.0 | 0.00 | 0.00 | 0.00 | 78 | 1019.1 |
| 20260507201550 | 6 | 339 | 0.0 | 0.0 | 0.00 | 0.00 | 0.00 | 75 | 1018.9 |
| 20260507200050 | 7 | 339 | 0.0 | 0.0 | 0.00 | 0.00 | 0.00 | 74 | 1018.9 |
| 20260507194549 | 7 | 339 | 0.0 | 0.0 | 0.00 | 0.00 | 0.00 | 71 | 1018.7 |
| 20260507193046 | 8 | 339 | 0.0 | 0.0 | 0.00 | 0.00 | 0.00 | 69 | 1018.6 |
| 20260507191544 | 9 | 339 | 0.0 | 0.0 | 0.00 | 0.00 | 0.00 | 65 | 1018.4 |
| 20260507190043 | 11 | 339 | 0.0 | 0.0 | 0.00 | 0.00 | 0.00 | 62 | 1018.3 |
| 20260507184541 | 11 | 339 | 0.0 | 3.2 | 0.00 | 0.00 | 0.00 | 57 | 1018.2 |
| 20260507183047 | 12 | 339 | 0.0 | 4.8 | 0.00 | 0.00 | 0.00 | 53 | 1018.1 |
| 20260507181542 | 12 | 324 | 0.0 | 6.4 | 0.00 | 0.00 | 0.00 | 51 | 1018.1 |
| 20260507180050 | 13 | 360 | 0.0 | 8.0 | 0.00 | 0.00 | 0.00 | 49 | 1018.0 |
| 20260507174536 | 13 | 347 | 1.6 | 8.0 | 0.00 | 0.00 | 0.00 | 46 | 1017.9 |
| 20260507173040 | 13 | 40 | 3.2 | 8.0 | 0.00 | 0.00 | 0.00 | 43 | 1017.8 |
| 20260507171537 | 13 | 340 | 6.4 | 14.5 | 0.00 | 0.00 | 0.00 | 43 | 1017.6 |
| 20260507170033 | 13 | 45 | 3.2 | 12.9 | 0.00 | 0.00 | 0.00 | 43 | 1017.5 |
| 20260507164538 | 14 | 44 | 4.8 | 14.5 | 0.00 | 0.00 | 0.00 | 42 | 1017.4 |
| 20260507163037 | 15 | 23 | 6.4 | 14.5 | 0.00 | 0.00 | 0.00 | 40 | 1017.4 |
| 20260507161539 | 15 | 13 | 4.8 | 14.5 | 0.00 | 0.00 | 0.00 | 38 | 1017.3 |
| 20260507160042 | 15 | 350 | 1.6 | 20.9 | 0.00 | 0.00 | 0.00 | 37 | 1017.3 |
| 20260507154531 | 15 | 331 | 8.0 | 16.1 | 0.00 | 0.00 | 0.00 | 37 | 1017.4 |
| 20260507153030 | 15 | 355 | 6.4 | 16.1 | 0.00 | 0.00 | 0.00 | 37 | 1017.2 |
| 20260507151525 | 16 | 51 | 6.4 | 19.3 | 0.00 | 0.00 | 0.00 | 40 | 1017.1 |
| 20260507150028 | 15 | 331 | 4.8 | 14.5 | 0.00 | 0.00 | 0.00 | 41 | 1017.0 |
| 20260507144529 | 15 | 30 | 6.4 | 16.1 | 0.00 | 0.00 | 0.00 | 41 | 1016.9 |
| 20260507143022 | 15 | 65 | 6.4 | 16.1 | 0.00 | 0.00 | 0.00 | 43 | 1016.9 |
| 20260507141522 | 14 | 360 | 3.2 | 11.3 | 0.00 | 0.00 | 0.00 | 45 | 1016.9 |
| 20260507140021 | 15 | 32 | 6.4 | 19.3 | 0.00 | 0.00 | 0.00 | 46 | 1017.0 |